Regional Weather Roundup
Issued by NWS State College, PA

Home | Current Version | Previous Version | Text Only | Print | Product List | Glossary On
Versions: 1 2 3 4 5 6 7 8 9 10 11 12 13 14 15 16 17 18 19 20 21 22 23 24 25 26 27 28 29 30 31 32 33 34 35 36 37 38 39 40 41 42 43 44 45 46 47 48 49 50
000
ASUS41 KCTP 231410
RWRCTP

REGIONAL WEATHER ROUNDUP
NATIONAL WEATHER SERVICE STATE COLLEGE PA
1000 AM EDT TUE SEP 23 2014

Note: "fair" indicates few or no clouds below 12,000 feet with no
significant weather and/or obstructions to visibility.

* = STATION THAT DOES NOT REPORT PRECIPITATION /E.G. RAIN...SNOW...ETC/
    THUNDER OR FOG.

PAZ002>004-007>009-013>016-020>023-029>032-231500-
WESTERN PENNSYLVANIA

CITY           SKY/WX    TMP DP  RH WIND       PRES   REMARKS
ERIE           MOSUNNY   57  47  69 S7        30.35R
MEADVILLE      SUNNY     52  45  77 W5        30.36R
FRANKLIN*      SUNNY     52  45  76 W5        30.38R
NEW CASTLE       N/A     49  49 100 CALM      30.39R
BEAVER COUNTY  SUNNY     54  45  71 CALM      30.37S
BUTLER*        SUNNY     54  43  66 CALM      30.39S
PITTSBURGH INT MOSUNNY   51  44  77 SE5       30.37S
PITTSBURGH     SUNNY     52  42  69 CALM      30.37R
INDIANA*       SUNNY     50  43  76 SW3       30.42R
LATROBE        SUNNY     50  46  87 CALM      30.39R
WASHINGTON CO* SUNNY     52  45  76 E3        30.38S
$$

PAZ004>006-010>012-017>019-024>028-033>037-041-042-045-046-049>053-231500-
CENTRAL PENNSYLVANIA

CITY           SKY/WX    TMP DP  RH WIND       PRES   REMARKS
BRADFORD       SUNNY     53  45  74 W6        30.35R
DUBOIS         SUNNY     50  44  80 CALM      30.35R
CLEARFIELD     SUNNY     48  43  82 S6        30.37R
JOHNSTOWN      SUNNY     50  40  68 CALM      30.35F
ALTOONA        SUNNY     51  44  77 SW3       30.37R
STATE COLLEGE  SUNNY     52  45  76 CALM      30.36R
WILLIAMSPORT   SUNNY     53  45  74 W5        30.35S
SELINSGROVE    SUNNY     56  46  69 CALM      30.36R
FT INDIANTOWN  SUNNY     57  46  66 VRB1      30.35S
CAPITAL CITY   SUNNY     57  43  59 VRB3      30.37R
HARRISBURG     SUNNY     58  45  62 W7        30.36R
YORK           SUNNY     58  45  62 MISG      30.36R
$$

PAZ038>040-043-044-047-048-054-055-060>062-067>071-231500-
EASTERN PENNSYLVANIA

CITY           SKY/WX    TMP DP  RH WIND       PRES   REMARKS
SCRANTON       SUNNY     53  41  63 VRB3      30.35R
MOUNT POCONO   SUNNY     54  40  59 N7        30.32R
ALLENTOWN      SUNNY     56  42  59 CALM      30.34R
QUAKERTOWN*    SUNNY     57  43  58 NE6       30.35R
READING        SUNNY     58  44  60 VRB3      30.34R
LANCASTER      SUNNY     57  43  59 N3        30.35R
COATESVILLE    SUNNY     55  45  67 N7        30.34S
POTTSTOWN      SUNNY     58  43  57 N6        30.36R
BLUE BELL      SUNNY     59  45  58 N3        30.34R
DOYLESTOWN     SUNNY     57  43  59 VRB7      30.33R
WILLOW GROVE   NOT AVBL
NORTH PHILA    SUNNY     61  41  47 NE8       30.35R
PHILADELPHIA   MOSUNNY   61  43  51 NE8       30.34R
$$



USA.gov is the U.S. government's official web portal to all federal, state and local government web resources and services.